Weather Roundup
Issued by NWS Chicago, IL

Home | Current Version | Previous Version | Text Only | Print | Product List | Glossary Off
Versions: 1 2 3 4 5 6 7 8 9 10 11 12 13 14 15 16 17 18 19 20 21 22 23 24 25 26 27 28 29 30 31 32 33 34 35 36 37 38 39 40 41 42 43 44 45 46 47 48 49 50

000
NZUS59 KLOT 291208
HRRLOT

CHICAGO AREA WEATHER ROUNDUP
NATIONAL WEATHER SERVICE CHICAGO/ROMEOVILLE IL
700 AM CDT FRI JUL 29 2016

NOTE: "FAIR" INDICATES FEW OR NO CLOUDS BELOW 12,000 FEET WITH NO
SIGNIFICANT WEATHER AND/OR OBSTRUCTIONS TO VISIBILITY.

* THESE STATIONS ARE NOT UNDER NWS QUALITY CONTROL. THEY ALSO MAY NOT
  REPORT WEATHER SUCH AS PRECIPITATION OR FOG.

ILZ005-006-012>014-019>023-291300-
NORTHEAST ILLINOIS

CITY           SKY/WX    TMP DP  RH WIND       PRES   REMARKS
OHARE          PTSUNNY   71  68  90 N6        29.92R
6HR MIN TEMP:  70; 6HR MAX TEMP:  71;

MIDWAY         CLOUDY    73  69  87 N3        29.92R
6HR MIN TEMP:  70; 6HR MAX TEMP:  73;

AURORA         FOG       71  70  96 NE6       29.93R VSB 1/2
6HR MIN TEMP:  69; 6HR MAX TEMP:  71;

LANSING*       SUNNY     69  68  94 CALM      29.92R FOG
JOLIET*        CLOUDY    73  71  93 CALM      29.92R FOG
WAUKEGAN       CLOUDY    71  67  87 NE5       29.94R
6HR MIN TEMP:  69; 6HR MAX TEMP:  71;

DUPAGE AIRPORT CLOUDY    71  68  90 NE6       29.93R
6HR MIN TEMP:  70; 6HR MAX TEMP:  71;

WHEELING       MOSUNNY   70  68  93 VRB3      29.94R
6HR MIN TEMP:  69; 6HR MAX TEMP:  70;

KANKAKEE*      CLOUDY    69  68  95 CALM      29.92S
MORRIS*        CLOUDY    71  70  96 CALM      29.91S FOG
LEWIS AIRPORT* CLOUDY    70  69  97 CALM      29.92S FOG
NORTHERLY ISL    N/A     73  69  87 MISG        N/A
$$

WIZ051-052-058>065-066-070>072-291300-
SOUTHEAST WISCONSIN

CITY           SKY/WX    TMP DP  RH WIND       PRES   REMARKS
MILWAUKEE      CLOUDY    68  64  87 NE8       29.96R
6HR MIN TEMP:  67; 6HR MAX TEMP:  69;

KENOSHA*       CLOUDY    70  67  90 N3        29.95R
RACINE*        CLOUDY    72  65  78 E7        29.97R
BURLINGTON     CLOUDY    68  66  93 NE5       29.96R
WAUKESHA       CLOUDY    64  63  94 NE9       29.98S
$$

INZ001>003-010>013-019-020-291300-
NORTHWEST INDIANA

CITY           SKY/WX    TMP DP  RH WIND       PRES   REMARKS
GARY*          MOSUNNY   70  70 100 CALM      29.92R
MICHIGAN CITY* NOT AVBL
RENSSELAER*    NOT AVBL
VALPARAISO     SUNNY     68  66  93 NE3       29.93R
$$

LMZ740>746-291300-
SOUTHERN LAKE MICHIGAN

STATION/POSITION TIME  SKY/WX   TEMP WIND        PRES    VSBY
                                AIR  DIR/SP/G
                 (UTC)          (F)  (DEG/KT/KT) (MB)    (MI)
HARRISON CRIB    1100            75   50/  5/  5   N/A
BURNHAM HARBOR   1200            73   40/  5       N/A
CALUMET HARBOR   1100            72   10/  2/  2 1012.3R
BURNS HARBOR     1104            71  110/  5/  7 1013.2S
MICHIGAN CITY    1100            68   90/  2/  3   N/A
$$

ABBREVIATIONS USED IN REMARKS
   TC - TEMPERATURE IN CELSIUS
  WCI - WIND CHILL INDEX
   HX - HEAT INDEX
  VSB - VISIBILITY
$$




USA.gov is the U.S. government's official web portal to all federal, state and local government web resources and services.